ATLAS 5 CENTAUR DEB, 43951

Orbit data source: Space-Track

ATLAS 5 CENTAUR DEB, 43951 is space debris in HEO originally from a launch on Wed, 17 Sep 2014 UTC launched from the Air Force Eastern Test Range (AFETR). Debris objects in space refer to the collection of defunct objects orbiting the Earth. Examples of debris include non-operational satellites, rocket bodies, and fragments generated from explosions, collisions, or faulty payload assembly.

Loading next visibility...
Identifier
43951, 2014-055E
Orbit
HEO
Country
Flag of USUS
Related business
Flag of USUnited Launch Alliance/Lockheed Martin (US)
Manufacturer
Unknown
Mission
Spacecraft
Bus & Motor
Unknown
Mass
Unknown
Launch date (UTC)
2014-09-17 (12 years ago)
Launch vehicle
Unknown
Launch site
Air Force Eastern Test Range (AFETR)
Object type
Payload
Rocket body
Debris
Shape & HBR
Unknown shape, 1.1 m
Radar Cross Section
Medium (>0.1 m² and <1 m²)

Expand to show TLE details & history
Last TLE update: 1 day ago

TLE from 1 day ago
0 ATLAS 5 CENTAUR DEB
1 43951U 14055E   26236.24316766 -.00000184  00000-0  00000-0 0  9995
2 43951  20.6983 117.0114 4848576 215.3309  99.9810  1.89439069 55186
Epoch: 2026-08-24T05:50Z
TLE epoch observation values (Epoch: 2026-08-24T05:50:09.685Z)
Latitude
0.00003°
Longitude
57.00797°
Altitude
28,562.448 km
Speed
2.893 km/s
True Right ascension
07h 48m 18s
True Declination
0° 00' 00"
Sunlit
Object was in daylight at epoch
Visualization orbit readout
Latitude
Unknown
Longitude
Unknown
Altitude
Unknown
Speed
Unknown
Apparent Right ascension
Unknown
Apparent Declination
Unknown
Sunlit
N/A
Visualization observer readout
Local Sidereal Time
03:28:27
Azimuth
Unknown
Elevation
Unknown
Doppler factor
Unknown
Orbital elements
Apogee altitude
34,592.345 km
Perigee altitude
7,835.773 km
Semi-major axis
27,592.196 km
Eccentricity
0.48486
Inclination
20.6983°
RAAN
117.0114°
Arg. of periapsis
215.3309°
True anomaly
144.6837°
Mean anomaly
99.981°
Eccentric anomaly
123.22099°
Mean motion
0.47355 °/min
Orbital period
760.22 mins
BSTAR
0
Loading maneuver chart data...
Computing Atmospheric mass density...

Documentation

Showing up to 5 results
|